TimeEST,TemperatureF,Dew PointF,Humidity,Sea Level PressureIn,VisibilityMPH,Wind Direction,Wind SpeedMPH,Gust SpeedMPH,PrecipitationIn,Events,Conditions,WindDirDegrees,DateUTC
12:53 AM,72.0,64.0,76,30.06,10.0,ENE,12.7,18.4,0.00,Rain,Light Rain,70,2012-12-15 05:53:00
1:53 AM,73.0,63.0,71,30.04,10.0,East,12.7,-,0.00,,Mostly Cloudy,90,2012-12-15 06:53:00
2:53 AM,73.0,63.0,71,30.03,10.0,East,11.5,-,N/A,,Mostly Cloudy,90,2012-12-15 07:53:00
3:53 AM,73.0,63.0,71,30.03,10.0,East,12.7,-,N/A,,Partly Cloudy,90,2012-12-15 08:53:00
4:53 AM,73.0,63.0,71,30.05,10.0,ENE,9.2,-,N/A,,Scattered Clouds,70,2012-12-15 09:53:00
5:53 AM,73.0,63.0,71,30.06,10.0,ENE,8.1,-,N/A,,Scattered Clouds,70,2012-12-15 10:53:00
6:53 AM,73.0,62.1,68,30.07,10.0,ENE,9.2,-,N/A,,Mostly Cloudy,70,2012-12-15 11:53:00
7:53 AM,73.9,62.1,66,30.09,10.0,ENE,10.4,-,N/A,,Mostly Cloudy,70,2012-12-15 12:53:00
8:53 AM,75.9,62.1,62,30.09,10.0,ENE,11.5,-,N/A,,Mostly Cloudy,70,2012-12-15 13:53:00
9:53 AM,75.9,62.1,62,30.11,10.0,East,12.7,-,N/A,,Scattered Clouds,80,2012-12-15 14:53:00
10:53 AM,78.1,64.0,62,30.10,10.0,ENE,10.4,-,N/A,,Mostly Cloudy,60,2012-12-15 15:53:00
11:53 AM,80.1,63.0,56,30.08,10.0,East,12.7,21.9,N/A,,Mostly Cloudy,90,2012-12-15 16:53:00
12:53 PM,77.0,62.1,60,30.07,10.0,ENE,12.7,-,0.00,Rain,Light Rain,70,2012-12-15 17:53:00
1:53 PM,77.0,61.0,58,30.05,10.0,ENE,12.7,-,0.00,,Mostly Cloudy,70,2012-12-15 18:53:00
2:53 PM,78.1,61.0,56,30.04,10.0,ENE,11.5,-,N/A,,Mostly Cloudy,70,2012-12-15 19:53:00
3:53 PM,77.0,61.0,58,30.04,10.0,East,12.7,-,N/A,,Mostly Cloudy,90,2012-12-15 20:53:00
4:53 PM,75.9,62.1,62,30.04,10.0,East,12.7,-,N/A,,Mostly Cloudy,80,2012-12-15 21:53:00
5:53 PM,75.0,60.1,60,30.05,10.0,ENE,10.4,-,N/A,,Mostly Cloudy,70,2012-12-15 22:53:00
6:53 PM,75.0,62.1,64,30.06,10.0,East,9.2,-,N/A,,Mostly Cloudy,80,2012-12-15 23:53:00
7:53 PM,75.0,63.0,66,30.08,10.0,East,11.5,-,N/A,,Mostly Cloudy,90,2012-12-16 00:53:00
8:53 PM,73.9,63.0,68,30.08,10.0,East,10.4,-,N/A,,Scattered Clouds,90,2012-12-16 01:53:00
9:53 PM,73.9,64.0,71,30.06,10.0,East,13.8,-,N/A,,Scattered Clouds,100,2012-12-16 02:53:00
10:53 PM,73.0,63.0,71,30.06,10.0,East,10.4,-,N/A,,Scattered Clouds,100,2012-12-16 03:53:00
11:53 PM,73.0,63.0,71,30.05,10.0,ESE,10.4,-,N/A,,Scattered Clouds,110,2012-12-16 04:53:00